Location: Biltmore Gardens
(41.6070°N, 83.4666°W)
Time: 15:35:44
(UTC+00:00)

deb Explorer IX - All Passes

Search period start: 23 April 2021 00:00
Search period end: 03 May 2021 00:00
Orbit: 541 x 1099 km, 38.8° (Epoch: 22 April)

Date Brightness Start Highest point End Pass type
(mag) Time Alt. Az. Time Alt. Az. Time Alt. Az.
23 Apr - 09:48:14 10° S 09:49:59 12° SSE 09:51:46 10° ESE visible
23 Apr - 11:32:07 10° SW 11:35:56 40° SSE 11:40:04 10° E daylight
23 Apr - 13:18:08 10° W 13:22:21 62° S 13:27:07 10° E daylight
23 Apr - 15:04:33 10° W 15:08:54 42° SSW 15:13:54 10° SE daylight
23 Apr - 16:52:00 10° WSW 16:55:16 17° SSW 16:58:49 10° S daylight
24 Apr - 09:24:34 10° S 09:26:21 12° SSE 09:28:07 10° ESE visible
24 Apr - 11:08:31 10° SW 11:12:19 39° SSE 11:16:20 10° E daylight
24 Apr - 12:54:34 10° W 12:58:42 61° S 13:03:19 10° E daylight
24 Apr - 14:41:00 10° W 14:45:13 41° SSW 14:50:02 10° SE daylight
24 Apr - 16:28:31 10° WSW 16:31:32 16° SSW 16:34:49 10° S daylight
25 Apr - 09:00:53 10° S 09:02:42 13° SSE 09:04:30 10° ESE visible
25 Apr - 10:44:54 10° SW 10:48:41 39° SSE 10:52:37 10° E daylight
25 Apr - 12:31:00 10° W 12:35:04 60° S 12:39:33 10° E daylight
25 Apr - 14:17:27 10° W 14:21:32 40° SSW 14:26:11 10° SE daylight
25 Apr - 16:05:02 10° WSW 16:07:50 15° SSW 16:10:50 10° S daylight
26 Apr - 08:37:09 10° S 08:39:03 13° SSE 08:40:55 10° ESE visible
26 Apr - 10:21:16 10° SW 10:25:04 39° SSE 10:28:56 10° E daylight
26 Apr - 12:07:25 10° W 12:11:26 60° S 12:15:47 10° E daylight
26 Apr - 13:53:54 10° W 13:57:53 38° SSW 14:02:20 10° SE daylight
26 Apr - 15:41:35 10° WSW 15:44:08 14° SSW 15:46:51 10° S daylight
27 Apr - 08:13:23 10° S 08:15:24 13° SSE 08:17:22 10° ESE visible
27 Apr - 09:57:37 10° SW 10:01:27 39° SSE 10:05:17 10° E visible
27 Apr - 11:43:49 10° W 11:47:49 59° S 11:52:03 10° ESE daylight
27 Apr - 13:30:20 10° W 13:34:14 37° SSW 13:38:32 10° SE daylight
27 Apr - 15:18:08 10° WSW 15:20:27 14° SSW 15:22:52 10° S daylight
28 Apr - 07:49:34 10° S 07:51:45 14° SSE 07:53:51 10° ESE visible
28 Apr - 09:33:57 10° SW 09:37:49 39° SSE 09:41:38 10° E visible
28 Apr - 11:20:13 10° W 11:24:13 59° S 11:28:21 10° ESE daylight
28 Apr - 13:06:47 10° W 13:10:35 37° SSW 13:14:45 10° SE daylight
28 Apr - 14:54:43 10° WSW 14:56:46 13° SSW 14:58:54 10° S daylight
29 Apr - 07:25:44 10° S 07:28:05 14° SSE 07:30:20 10° ESE visible
29 Apr - 09:10:15 10° SW 09:14:13 39° SSE 09:18:01 10° E visible
29 Apr - 10:56:35 10° W 11:00:35 59° S 11:04:39 10° ESE daylight
29 Apr - 12:43:11 10° W 12:46:57 36° SSW 12:50:59 10° SE daylight
29 Apr - 14:31:18 10° SW 14:33:05 12° SSW 14:34:57 10° S daylight
30 Apr - 07:01:52 10° S 07:04:26 15° SSE 07:06:51 10° ESE visible
30 Apr - 08:46:31 10° SW 08:50:35 40° SSE 08:54:25 10° E visible
30 Apr - 10:32:55 10° W 10:36:59 59° S 10:41:00 10° ESE daylight
30 Apr - 12:19:36 10° W 12:23:19 35° SSW 12:27:15 10° SE daylight
30 Apr - 14:07:53 10° SW 14:09:24 12° SSW 14:11:00 10° S daylight
01 May - 06:38:00 10° S 06:40:45 15° SSE 06:43:21 10° ESE visible
01 May - 08:22:46 10° SW 08:26:57 41° SSE 08:30:50 10° E visible
01 May - 10:09:15 10° W 10:13:22 59° S 10:17:21 10° ESE daylight
01 May - 11:55:59 10° W 11:59:42 35° SSW 12:03:32 10° SE daylight
01 May - 13:44:29 10° SW 13:45:45 11° SSW 13:47:03 10° SSW daylight
02 May - 06:14:06 10° S 06:17:05 16° SSE 06:19:51 10° ESE night (unlit)
02 May - 07:59:00 10° SW 08:03:19 42° SSE 08:07:15 10° E visible
02 May - 09:45:33 10° W 09:49:44 59° S 09:53:44 10° ESE visible
02 May - 11:32:21 10° W 11:36:05 34° SSW 11:39:51 10° SE daylight
02 May - 13:21:05 10° SW 13:22:05 11° SSW 13:23:06 10° SSW daylight
